Location: *
(37.5724°S, 58.0067°E)
Time: 12:07:16
(UTC+00:00)

Genesis I - Pass Details

Date: 18 January 2021
Orbit: 488 x 532 km, 64.5° (Epoch: 05 March)

Event Time Altitude Azimuth Distance (km) Brightness Sun altitude
Exits shadow 21:46:10 15° 95° (E) 1,480 5.8 -28.5°
Drops below altitude 10° 21:47:29 10° 112° (ESE) 1,782 6.4 -28.4°
Sets 21:50:12 0° 131° (SE) 2,672 7.8 -28.2°
